Date String (YYYY-MM-DD hh:mm:ss) UTC,Instrument flags,Ambient pressure (hPa),Sample flow (lpm),Bypass flow (lpm),Sample temperature (°C),Ambient temperature (°C),ASC tube jacket temperature (°C),LED temperature (°C),Box temperature (°C),Sample RH (%),Span deviation,Mass concentration (μg/m³),Mass concentration (μg/m³),Mass concentration (μg/m³)
DateTimeUTC,F1_M11,P_M11,Q1_M11,Q2_M11,T1_M11,T2_M11,T3_M11,T4_M11,T5_M11,U1_M11,ZSPAN_M11,X0_M11,X2_M11,X1_M11
2023-01-29 01:00:00,,0821.4,4.99,0.00,22.3,22.1,00.0,31.1,24.2,12.0,-001.5,0009.02,0006.59,0006.47
2023-01-29 01:01:00,,0821.4,4.99,0.00,22.4,22.7,00.0,31.1,24.4,11.8,-001.3,0009.35,0006.71,0006.57
2023-01-29 01:02:00,,0821.4,5.01,0.00,22.4,22.2,00.0,31.2,24.3,11.7,-001.0,0009.39,0006.78,0006.64
2023-01-29 01:03:00,,0821.4,4.99,0.00,22.4,21.7,00.0,31.2,24.2,11.7,-001.0,0009.41,0006.82,0006.69
2023-01-29 01:04:00,,0821.4,5.01,0.00,22.4,21.3,00.0,31.2,24.0,11.7,-000.8,0009.33,0006.84,0006.70
2023-01-29 01:05:00,,0821.5,4.99,0.00,22.3,20.9,00.0,31.2,23.9,11.6,-000.7,0009.33,0006.85,0006.70
2023-01-29 01:06:00,,0821.5,5.00,0.00,22.2,20.6,00.0,31.2,23.8,11.6,-000.6,0009.31,0006.85,0006.68
2023-01-29 01:07:00,,0821.5,5.00,0.00,22.2,20.4,00.0,31.2,23.7,11.6,-000.8,0009.28,0006.84,0006.67
2023-01-29 01:08:00,,0821.5,5.03,0.00,22.1,20.5,00.0,31.1,23.7,11.5,-000.9,0009.11,0006.81,0006.65
2023-01-29 01:09:00,,0821.6,5.00,0.00,22.2,21.5,00.0,31.1,24.0,11.4,-000.7,0009.05,0006.78,0006.62
2023-01-29 01:10:00,,0821.7,5.01,0.00,22.3,22.4,00.0,31.1,24.3,11.3,-000.6,0008.99,0006.75,0006.60
2023-01-29 01:11:00,,0821.7,5.00,0.00,22.5,23.0,00.0,31.1,24.5,11.2,-000.4,0008.92,0006.69,0006.54
2023-01-29 01:12:00,,0821.7,4.99,0.00,22.5,22.4,00.0,31.2,24.4,11.1,-000.7,0008.93,0006.65,0006.50
2023-01-29 01:13:00,,0821.7,5.00,0.00,22.4,21.8,00.0,31.2,24.2,11.0,-001.2,0009.43,0006.60,0006.46
2023-01-29 01:14:00,,0821.7,4.98,0.00,22.4,21.3,00.0,31.2,24.0,11.0,-001.2,0009.37,0006.54,0006.41
2023-01-29 01:15:00,,0821.7,4.99,0.00,22.3,20.9,00.0,31.2,23.9,11.0,-000.7,0009.32,0006.50,0006.37
2023-01-29 01:16:00,,0821.8,5.01,0.00,22.3,20.6,00.0,31.2,23.8,11.0,-000.9,0009.24,0006.44,0006.32
2023-01-29 01:17:00,,0821.8,5.02,0.00,22.2,20.4,00.0,31.2,23.7,11.0,-001.3,0009.13,0006.36,0006.27
2023-01-29 01:18:00,,0821.8,4.99,0.00,22.2,20.4,00.0,31.2,23.7,11.0,-001.6,0009.04,0006.30,0006.23
2023-01-29 01:19:00,,0821.8,5.02,0.00,22.2,21.3,00.0,31.1,24.0,10.9,-001.6,0009.03,0006.29,0006.21
2023-01-29 01:20:00,,0821.8,5.00,0.00,22.3,22.3,00.0,31.1,24.3,10.8,-001.8,0009.07,0006.29,0006.20
2023-01-29 01:21:00,,0821.8,4.98,0.00,22.4,22.5,00.0,31.2,24.4,10.8,-001.7,0009.09,0006.27,0006.18
2023-01-29 01:22:00,,0821.9,5.02,0.00,22.4,22.0,00.0,31.2,24.3,10.7,-002.0,0009.12,0006.29,0006.19
2023-01-29 01:23:00,,0821.9,5.00,0.00,22.4,21.5,00.0,31.2,24.1,10.7,-001.8,0008.98,0006.30,0006.22
2023-01-29 01:24:00,,0821.9,4.99,0.00,22.3,21.1,00.0,31.2,24.0,10.7,-001.8,0008.33,0006.33,0006.25
2023-01-29 01:25:00,,0821.9,4.99,0.00,22.3,20.8,00.0,31.2,23.9,10.7,-001.7,0008.38,0006.36,0006.26
2023-01-29 01:26:00,,0822.0,5.03,0.00,22.2,20.5,00.0,31.2,23.8,10.7,-001.9,0008.43,0006.36,0006.26
2023-01-29 01:27:00,,0822.1,5.00,0.00,22.2,20.3,00.0,31.2,23.7,10.7,-002.4,0008.55,0006.37,0006.26
2023-01-29 01:28:00,,0822.1,5.02,0.00,22.2,20.7,00.0,31.1,23.8,10.7,-002.3,0008.61,0006.39,0006.27
2023-01-29 01:29:00,,0822.2,5.00,0.00,22.3,21.7,00.0,31.1,24.1,10.7,-002.2,0008.62,0006.39,0006.27
2023-01-29 01:30:00,,0822.2,5.00,0.00,22.4,22.6,00.0,31.1,24.3,10.6,-002.2,0008.64,0006.39,0006.26
2023-01-29 01:31:00,,0822.2,4.99,0.00,22.4,22.4,00.0,31.2,24.3,10.6,-002.0,0008.62,0006.38,0006.24
2023-01-29 01:32:00,,0822.2,5.00,0.00,22.4,21.9,00.0,31.2,24.2,10.5,-002.1,0008.60,0006.37,0006.23
2023-01-29 01:33:00,,0822.3,5.01,0.00,22.4,21.4,00.0,31.2,24.1,10.6,-001.9,0008.57,0006.34,0006.21
2023-01-29 01:34:00,,0822.3,4.99,0.00,22.3,21.1,00.0,31.2,24.0,10.6,-001.8,0008.53,0006.31,0006.18
2023-01-29 01:35:00,,0822.3,4.99,0.00,22.3,20.8,00.0,31.2,23.9,10.6,-001.6,0008.51,0006.29,0006.15
2023-01-29 01:36:00,,0822.3,5.01,0.00,22.2,20.6,00.0,31.2,23.8,10.6,-001.3,0008.49,0006.29,0006.14
2023-01-29 01:37:00,,0822.3,5.00,0.00,22.2,20.4,00.0,31.2,23.7,10.6,-001.3,0008.45,0006.29,0006.15
2023-01-29 01:38:00,,0822.4,5.00,0.00,22.1,20.3,00.0,31.2,23.7,10.6,-000.8,0008.35,0006.30,0006.15
2023-01-29 01:39:00,,0822.4,5.00,0.00,22.1,21.1,00.0,31.1,23.9,10.6,-001.1,0008.32,0006.29,0006.16
2023-01-29 01:40:00,,0822.4,4.99,0.00,22.3,22.1,00.0,31.1,24.2,10.5,-001.1,0008.31,0006.29,0006.16
2023-01-29 01:41:00,,0822.4,5.02,0.00,22.4,22.7,00.0,31.1,24.4,10.4,-001.1,0008.28,0006.27,0006.15
2023-01-29 01:42:00,,0822.3,5.00,0.00,22.4,22.2,00.0,31.2,24.3,10.4,-001.1,0008.28,0006.25,0006.12
2023-01-29 01:43:00,,0822.4,5.03,0.00,22.4,21.7,00.0,31.2,24.1,10.3,-001.1,0008.22,0006.20,0006.09
2023-01-29 01:44:00,,0822.4,5.00,0.00,22.3,21.2,00.0,31.2,24.0,10.3,-001.2,0008.18,0006.17,0006.05
2023-01-29 01:45:00,,0822.4,5.00,0.00,22.3,20.9,00.0,31.2,23.9,10.3,-001.5,0008.13,0006.12,0006.01
2023-01-29 01:46:00,,0822.4,5.04,0.00,22.2,20.6,00.0,31.2,23.8,10.2,-001.5,0008.08,0006.08,0005.97
2023-01-29 01:47:00,,0822.4,4.99,0.00,22.2,20.4,00.0,31.2,23.7,10.3,-002.1,0008.00,0006.01,0005.92
2023-01-29 01:48:00,,0822.4,5.02,0.00,22.1,20.6,00.0,31.1,23.8,10.2,-002.3,0007.93,0005.94,0005.85
2023-01-29 01:49:00,,0822.5,5.01,0.00,22.2,21.6,00.0,31.1,24.1,10.2,-002.4,0007.94,0005.87,0005.79
2023-01-29 01:50:00,,0822.6,5.00,0.00,22.4,22.6,00.0,31.1,24.3,10.1,-002.1,0008.02,0005.80,0005.72
2023-01-29 01:51:00,,0822.6,5.00,0.00,22.4,22.7,00.0,31.1,24.4,10.0,-001.6,0007.96,0005.74,0005.65
2023-01-29 01:52:00,,0822.6,4.99,0.00,22.4,22.1,00.0,31.2,24.3,09.9,-001.3,0007.87,0005.66,0005.58
2023-01-29 01:53:00,,0822.6,5.01,0.00,22.4,21.6,00.0,31.2,24.1,09.9,-001.7,0007.75,0005.59,0005.53
2023-01-29 01:54:00,,0822.6,4.99,0.00,22.3,21.1,00.0,31.2,24.0,09.9,-001.5,0007.72,0005.55,0005.48
2023-01-29 01:55:00,,0822.6,4.99,0.00,22.3,20.8,00.0,31.2,23.9,09.9,-001.4,0007.70,0005.53,0005.46
2023-01-29 01:56:00,,0822.7,5.02,0.00,22.2,20.5,00.0,31.2,23.8,09.9,-001.2,0007.69,0005.50,0005.43
2023-01-29 01:57:00,,0822.8,5.00,0.00,22.2,20.3,00.0,31.2,23.7,09.9,-001.3,0007.65,0005.47,0005.40
2023-01-29 01:58:00,,0822.9,5.01,0.00,22.2,20.9,00.0,31.1,23.9,09.9,-000.4,0007.64,0005.47,0005.39
2023-01-29 01:59:00,,0822.8,5.00,0.00,22.3,21.9,00.0,31.1,24.2,09.8,0000.2,0007.67,0005.48,0005.40
